Flag for Canada Weather past 2 weeks in Oshawa, Ontario, Canada

Now
39 °F

Overcast.


Feels Like: 32 °F
Forecast: 40 / 53 °F
Wind: 13 mph from North

Location: Toronto Buttonville

Current Time: Apr 27, 2015 at 8:46:18 AM

Latest Report: Apr 27, 2015 at 8:00 AM


Visibility: 15 mi

Pressure: 29.85 "Hg

Humidity: 81%

Dew point: 34 °F

Location of OshawaLocation

Historic Weather in Oshawa — Graph

°F

Oshawa temperature yesterday

Maximum temperature yesterday: 52 °F (at 1:00 PM)
Minimum temperature yesterday: 37 °F (at 2:00 AM)
Average temperature yesterday: 44 °F

Past Weeks' High & Low Weather Summary

 TemperatureHumidityPressure
High73 °F (Apr 13, 4:00 PM)100% (Apr 14, 5:00 AM)30.42 "Hg (Apr 14, 5:00 AM)
Low27 °F (Apr 25, 6:00 AM)20% (Apr 14, 4:00 PM)29.38 "Hg (Apr 20, 6:00 PM)
Average46 °F61%29.96 "Hg
* Reported Apr 12 8:00 AM — Apr 27 8:00 AM, Oshawa, Weather by CustomWeather, © 2015

Note: Actual official high and low records may vary slightly from our data, if they occured in-between our weather recording intervals... More about our weather records

Advertising

Oshawa weather history for previous 24 hours

 ConditionsComfort  
Time TempWeatherWind HumidityBarometerVisibility
8:00 AM
Mon, Apr 27
39 °FOvercast.13 mph81%29.85 "Hg15 mi
7:00 AM39 °FMostly cloudy.13 mph81%29.83 "Hg15 mi
6:00 AM39 °FMostly cloudy.10 mph81%29.82 "Hg15 mi
5:00 AM41 °FPassing clouds.15 mph81%29.81 "Hg15 mi
4:00 AM41 °FPassing clouds.10 mph81%29.81 "Hg15 mi
3:00 AM43 °FPassing clouds.7 mph76%29.80 "Hg15 mi
2:00 AM43 °FPassing clouds.7 mph76%29.80 "Hg15 mi
1:00 AM43 °FPassing clouds.8 mph76%29.80 "Hg15 mi
12:00 AM45 °FOvercast.12 mph66%29.81 "Hg15 mi
11:00 PM
Sun, Apr 26
45 °FOvercast.14 mph66%29.82 "Hg15 mi
10:00 PM45 °FPassing clouds.9 mph61%29.83 "Hg15 mi
9:00 PM45 °FPartly sunny.8 mph61%29.84 "Hg15 mi
8:00 PM46 °FPartly sunny.14 mph57%29.84 "Hg15 mi
7:00 PM48 °FScattered clouds.21 mph54%29.83 "Hg15 mi
6:00 PM48 °FPartly sunny.15 mph58%29.83 "Hg15 mi
5:00 PM50 °FPartly sunny.14 mph50%29.82 "Hg15 mi
4:00 PM52 °FPartly sunny.17 mph54%29.83 "Hg15 mi
3:00 PM50 °FPartly sunny.15 mph54%29.83 "Hg15 mi
2:00 PM52 °FPartly sunny.17 mph47%29.83 "Hg15 mi
1:00 PM52 °FPartly sunny.13 mph47%29.82 "Hg15 mi
12:00 PM50 °FPartly sunny.9 mph50%29.84 "Hg15 mi
11:00 AM46 °FPartly sunny.10 mph57%29.85 "Hg15 mi
10:00 AM45 °FPartly sunny.9 mph61%29.86 "Hg15 mi
9:00 AM43 °FScattered clouds.13 mph66%29.87 "Hg15 mi
8:00 AM41 °FScattered clouds.10 mph66%29.86 "Hg15 mi
Weather by CustomWeather, © 2015

See weather overviewHow to use our weather pages